Location: Newark
(40.7066°N, 111.8219°W)
Time: 13:12:15
(UTC+00:00)

Transit 2A Rocket - Pass Details

Date: 22 November 2019
Orbit: 594 x 909 km, 66.7° (Epoch: 05 December)

Event Time Altitude Azimuth Distance (km) Brightness Sun altitude
Rises 03:44:54 0° 195° (SSW) 3,109 - -41.4°
Reaches altitude 10° 03:47:22 10° 190° (S) 2,142 - -41.8°
Maximum altitude 03:52:01 50° 115° (ESE) 831 - -42.7°
Drops below altitude 10° 03:56:22 10° 40° (NE) 2,001 - -43.5°
Sets 03:58:37 0° 35° (NE) 2,883 - -43.9°
